Change the Weather History Date:

Wednesday, December 18, 2013

  Actual Average Record
Temperature  
Mean Temperature 49 °F 39 °F  
Max Temperature 68 °F 48 °F 72 °F (1939)
Min Temperature 30 °F 29 °F 4 °F (1964)
Degree Days  
Heating Degree Days 16 26  
Month to date heating degree days 538 439  
Since 1 July heating degree days 1239 1075  
Growing Degree Days 2 (Base 50)    
Moisture  
Dew Point 32 °F    
Average Humidity 52    
Maximum Humidity 75    
Minimum Humidity 29    
Precipitation  
Precipitation 0.00 in 0.08 in 2.30 in (1895)
Month to date precipitation 0.58 1.53  
Year to date precipitation 31.89 40.01  
Sea Level Pressure  
Sea Level Pressure 30.05 in    
Wind  
Wind Speed 14 mph (South)    
Max Wind Speed 25 mph    
Max Gust Speed 34 mph    
Visibility 10 miles    
Events      
T = Trace of Precipitation, MM = Missing Value Source: NWS Daily Summary

Daily Weather History Graph

Daily Weather History Graph

Search for Another Location

Airport or City:

Trip Planner

Search our weather history database for the weather conditions in past years. The results will help you decide how hot, cold, wet, or windy it might be!

Date:

Astronomy

Dec. 18, 2013 Rise Set
Actual Time 7:29 AM CST 5:11 PM CST
Civil Twilight 7:00 AM CST 5:40 PM CST
Nautical Twilight 6:28 AM CST 6:12 PM CST
Astronomical Twilight 5:57 AM CST 6:43 PM CST
Moon 6:41 PM CST (12/18) 8:12 AM CST (12/18)
Length of Visible Light 10h 39m
Length of Day
9h 41m
Full, 98% of the Moon is Illuminated
Dec 18
Full
Dec 25
Last Quarter
Jan 1
New
Jan 7
First Quarter
Jan 15
Full

Hourly Weather History & Observations

Time (CST) Temp. Windchill Dew Point Humidity Pressure Visibility Wind Dir Wind Speed Gust Speed Precip Events Conditions
12:53 AM 37.0 °F - 28.0 °F 70% 30.25 in 10.0 mi Calm Calm - N/A   Clear
1:53 AM 32.0 °F - 25.0 °F 75% 30.24 in 10.0 mi Calm Calm - N/A   Clear
2:53 AM 33.1 °F 30.0 °F 26.1 °F 75% 30.23 in 10.0 mi SSE 3.5 mph - N/A   Clear
3:53 AM 33.1 °F 28.7 °F 26.1 °F 75% 30.22 in 10.0 mi South 4.6 mph - N/A   Partly Cloudy
4:53 AM 37.0 °F 31.6 °F 28.0 °F 70% 30.20 in 10.0 mi SSE 6.9 mph - N/A   Scattered Clouds
5:53 AM 36.0 °F 28.5 °F 27.0 °F 70% 30.19 in 10.0 mi South 10.4 mph - N/A   Mostly Cloudy
6:53 AM 39.0 °F 31.4 °F 27.0 °F 62% 30.18 in 10.0 mi South 12.7 mph - N/A   Mostly Cloudy
7:53 AM 37.9 °F 30.5 °F 27.0 °F 65% 30.17 in 10.0 mi South 11.5 mph - N/A   Mostly Cloudy
8:53 AM 43.0 °F 36.0 °F 28.9 °F 58% 30.17 in 10.0 mi South 13.8 mph - N/A   Mostly Cloudy
9:53 AM 48.9 °F - 30.9 °F 50% 30.16 in 10.0 mi South 15.0 mph 21.9 mph N/A   Scattered Clouds
10:53 AM 54.0 °F - 34.0 °F 47% 30.14 in 10.0 mi South 20.7 mph - N/A   Mostly Cloudy
11:53 AM 59.0 °F - 35.1 °F 41% 30.09 in 10.0 mi South 17.3 mph - N/A   Mostly Cloudy
12:53 PM 64.0 °F - 36.0 °F 35% 30.04 in 10.0 mi South 12.7 mph - N/A   Mostly Cloudy
1:53 PM 66.9 °F - 33.1 °F 28% 29.99 in 10.0 mi South 19.6 mph 31.1 mph N/A   Overcast
2:53 PM 66.9 °F - 33.1 °F 28% 29.96 in 10.0 mi South 20.7 mph 29.9 mph N/A   Overcast
3:53 PM 66.9 °F - 35.1 °F 31% 29.94 in 10.0 mi South 21.9 mph 34.5 mph N/A   Overcast
4:53 PM 66.0 °F - 36.0 °F 33% 29.92 in 10.0 mi South 17.3 mph - N/A   Overcast
5:53 PM 62.1 °F - 36.0 °F 38% 29.91 in 10.0 mi South 15.0 mph - N/A   Mostly Cloudy
6:53 PM 60.1 °F - 33.1 °F 36% 29.91 in 10.0 mi South 18.4 mph 25.3 mph N/A   Mostly Cloudy
7:53 PM 59.0 °F - 34.0 °F 39% 29.91 in 10.0 mi South 23.0 mph 29.9 mph N/A   Mostly Cloudy
8:53 PM 57.9 °F - 34.0 °F 41% 29.91 in 10.0 mi South 18.4 mph - N/A   Mostly Cloudy
9:53 PM 57.0 °F - 36.0 °F 45% 29.90 in 10.0 mi South 20.7 mph 27.6 mph N/A   Mostly Cloudy
10:53 PM 55.9 °F - 39.0 °F 53% 29.90 in 10.0 mi South 19.6 mph - N/A   Mostly Cloudy
11:53 PM 55.9 °F - 41.0 °F 57% 29.88 in 10.0 mi South 18.4 mph - N/A   Mostly Cloudy